Location: Carnetin
(48.9010°N, 2.7059°E)
Time: 10:56:27
(UTC+00:00)

Cosmos 2278 - Pass Details

Date: 24 October 2021
Orbit: 838 x 854 km, 71.1° (Epoch: 30 November)

Event Time Altitude Azimuth Distance (km) Brightness Sun altitude
Rises 17:38:48 0° 215° (SW) 3,392 7.5 -9.9°
Reaches altitude 10° 17:41:15 10° 219° (SW) 2,463 6.8 -10.3°
Maximum altitude 17:46:52 66° 301° (WNW) 925 4.1 -11.2°
Drops below altitude 10° 17:52:34 10° 24° (NNE) 2,489 5.9 -12.2°
Sets 17:55:04 0° 27° (NNE) 3,431 6.6 -12.6°
